Powrót do katalogu

ARIANE 5 R/B

AktywnyHEO
NORAD 37607·ROCKET BODY·🇫🇷 France

Wystrzelony May 20, 2011 z Guiana Space Centre

Loading…

Następne Przeloty (najbliższe 24 godziny)

TLE

ŚwieżeSource: Space-Track

Epoka: Sep 14, 2026, 20:18 UTC

1 37607U 11022C   26257.84610521  .00698423  15784-6  46364-3 0  9997
2 37607   2.4793 351.8538 5180924 216.1266  94.0146  5.53061661180192

Śledź ARIANE 5 R/B w czasie rzeczywistym z AllMySat

Download on the App Store